Location: Molveno
(46.1500°N, 10.9667°E)
Time: 16:57:26
(UTC+00:00)

H-2A ROCKET BODY - Pass Details

Date: 05 July 2020
Orbit: 241 x 15320 km, 28.6° (Epoch: 10 August)

Event Time Altitude Azimuth Distance (km) Brightness Sun altitude
Rises 19:14:40 0° 222° (SW) 2,559 4.8 -1.5°
Reaches altitude 10° 19:16:57 10° 196° (SSW) 2,225 4.2 -1.8°
Maximum altitude 19:20:07 16° 158° (SSE) 2,651 4.3 -2.3°
Drops below altitude 10° 19:26:09 10° 125° (SE) 4,752 5.4 -3.1°
Enters shadow 19:35:03 - 112° (ESE) 8,044 6.6 -4.3°
